Weather History for Boone, IA

Change the Weather History Date:

Tuesday, June 10, 2014

  Actual Average Record
Temperature  
Mean Temperature 66 °F -  
Max Temperature 73 °F 78 °F 93 °F (1948)
Min Temperature 59 °F 54 °F 41 °F (1988)
Cooling Degree Days 1    
Growing Degree Days 16 (Base 50)    
Moisture  
Dew Point 54 °F    
Average Humidity 65    
Maximum Humidity 82    
Minimum Humidity 47    
Precipitation  
Precipitation 0.00 in - - ()
Sea Level Pressure  
Sea Level Pressure 29.88 in    
Wind  
Wind Speed 9 mph (ENE)    
Max Wind Speed 15 mph    
Max Gust Speed 20 mph    
Visibility 10 miles    
Events      
Averages and records for this station are not official NWS values.
T = Trace of Precipitation, MM = Missing Value Source: NWS Daily Summary

Daily Weather History Graph

Daily Weather History Graph

Search for Another Location

Airport:

Trip Planner

Search our weather history database for the weather conditions in past years. The results will help you decide how hot, cold, wet, or windy it might be!

Date:

Astronomy

Jun. 10, 2014 Rise Set
Actual Time 5:39 AM CDT 8:50 PM CDT
Civil Twilight 5:05 AM CDT 9:24 PM CDT
Nautical Twilight 4:21 AM CDT 10:08 PM CDT
Astronomical Twilight 3:28 AM CDT 11:02 PM CDT
Moon 6:14 PM CDT (6/10) 3:48 AM CDT (6/10)
Length of Visible Light 16h 19m
Length of Day
15h 11m
Waxing Gibbous, 92% of the Moon is Illuminated
Jun 10
Waxing Gibbous
Jun 12
Full
Jun 19
Last Quarter
Jun 27
New
Jul 5
First Quarter

Hourly Weather History & Observations

Time (CDT) Temp. Dew Point Humidity Pressure Visibility Wind Dir Wind Speed Gust Speed Precip Events Conditions
12:15 AM 62.6 °F 48.2 °F 59% 29.91 in 10.0 mi NE 9.2 mph - N/A   Clear
12:35 AM 62.6 °F 48.2 °F 59% 29.90 in 10.0 mi NE 9.2 mph - N/A   Clear
12:55 AM 62.6 °F 48.2 °F 59% 29.90 in 10.0 mi NE 8.1 mph - N/A   Clear
1:15 AM 62.6 °F 48.2 °F 59% 29.89 in 10.0 mi NE 9.2 mph - N/A   Clear
1:35 AM 62.6 °F 48.2 °F 59% 29.89 in 10.0 mi NE 9.2 mph - N/A   Clear
1:55 AM 60.8 °F 48.2 °F 63% 29.88 in 10.0 mi NE 9.2 mph - N/A   Clear
2:15 AM 60.8 °F 48.2 °F 63% 29.88 in 10.0 mi NE 8.1 mph - N/A   Clear
2:35 AM 60.8 °F 48.2 °F 63% 29.88 in 10.0 mi NE 9.2 mph - N/A   Scattered Clouds
2:55 AM 60.8 °F 48.2 °F 63% 29.87 in 10.0 mi NE 8.1 mph - N/A   Mostly Cloudy
3:15 AM 60.8 °F 48.2 °F 63% 29.87 in 10.0 mi NE 9.2 mph - N/A   Mostly Cloudy
3:35 AM 60.8 °F 48.2 °F 63% 29.87 in 10.0 mi NNE 8.1 mph - N/A   Mostly Cloudy
4:15 AM 60.8 °F 48.2 °F 63% 29.86 in 10.0 mi NNE 9.2 mph - N/A   Partly Cloudy
4:35 AM 60.8 °F 48.2 °F 63% 29.86 in 10.0 mi NNE 9.2 mph - N/A   Mostly Cloudy
4:55 AM 60.8 °F 50.0 °F 68% 29.87 in 10.0 mi NNE 8.1 mph - N/A   Overcast
5:15 AM 59.0 °F 50.0 °F 72% 29.86 in 10.0 mi NNE 8.1 mph - N/A   Mostly Cloudy
5:35 AM 59.0 °F 50.0 °F 72% 29.87 in 10.0 mi NNE 8.1 mph - N/A   Scattered Clouds
5:55 AM 59.0 °F 50.0 °F 72% 29.87 in 10.0 mi NNE 6.9 mph - N/A   Clear
6:15 AM 59.0 °F 51.8 °F 77% 29.87 in 10.0 mi NNE 8.1 mph - N/A   Clear
6:35 AM 59.0 °F 51.8 °F 77% 29.87 in 10.0 mi NNE 8.1 mph - N/A   Clear
6:55 AM 60.8 °F 53.6 °F 77% 29.88 in 10.0 mi NNE 6.9 mph - N/A   Clear
7:15 AM 60.8 °F 53.6 °F 77% 29.88 in 10.0 mi NE 8.1 mph - N/A   Clear
7:35 AM 62.6 °F 55.4 °F 77% 29.88 in 10.0 mi ENE 10.4 mph - N/A   Clear
7:55 AM 64.4 °F 57.2 °F 77% 29.88 in 10.0 mi ENE 10.4 mph - N/A   Partly Cloudy
8:15 AM 64.4 °F 57.2 °F 77% 29.88 in 10.0 mi ENE 11.5 mph - N/A   Scattered Clouds
8:35 AM 66.2 °F 59.0 °F 78% 29.89 in 10.0 mi ENE 10.4 mph - N/A   Scattered Clouds
8:55 AM 66.2 °F 59.0 °F 78% 29.89 in 10.0 mi East 10.4 mph - N/A   Mostly Cloudy
9:15 AM 66.2 °F 59.0 °F 78% 29.89 in 10.0 mi ENE 11.5 mph - N/A   Mostly Cloudy
9:35 AM 66.2 °F 59.0 °F 78% 29.89 in 10.0 mi East 9.2 mph - N/A   Mostly Cloudy
9:55 AM 69.8 °F 60.8 °F 73% 29.89 in 10.0 mi East 8.1 mph - N/A   Mostly Cloudy
10:15 AM 69.8 °F 59.0 °F 68% 29.89 in 10.0 mi ESE 10.4 mph - N/A   Mostly Cloudy
10:35 AM 69.8 °F 59.0 °F 68% 29.89 in 10.0 mi ESE 8.1 mph - N/A   Mostly Cloudy
10:55 AM 69.8 °F 59.0 °F 68% 29.89 in 10.0 mi East 9.2 mph - N/A   Mostly Cloudy
11:15 AM 69.8 °F 59.0 °F 68% 29.90 in 10.0 mi ESE 10.4 mph - N/A   Mostly Cloudy
11:35 AM 71.6 °F 59.0 °F 64% 29.90 in 10.0 mi Variable 5.8 mph - N/A   Partly Cloudy
11:55 AM 73.4 °F 59.0 °F 61% 29.90 in 10.0 mi SE 9.2 mph - N/A   Scattered Clouds
12:15 PM 71.6 °F 59.0 °F 64% 29.90 in 10.0 mi SE 9.2 mph 17.3 mph N/A   Scattered Clouds
1:15 PM 71.6 °F 57.2 °F 60% 29.90 in 10.0 mi SE 9.2 mph 17.3 mph N/A   Mostly Cloudy
1:35 PM 71.6 °F 57.2 °F 60% 29.90 in 10.0 mi ESE 9.2 mph - N/A   Overcast
1:55 PM 71.6 °F 59.0 °F 64% 29.89 in 10.0 mi SE 12.7 mph - N/A   Overcast
2:15 PM 71.6 °F 57.2 °F 60% 29.89 in 10.0 mi ESE 10.4 mph - N/A   Mostly Cloudy
2:35 PM 71.6 °F 57.2 °F 60% 29.89 in 10.0 mi ESE 10.4 mph - N/A   Partly Cloudy
4:15 PM 71.6 °F 55.4 °F 57% 29.88 in 10.0 mi ENE 6.9 mph - N/A   Partly Cloudy
4:55 PM 73.4 °F 55.4 °F 53% 29.87 in 10.0 mi East 13.8 mph - N/A   Scattered Clouds
5:15 PM 73.4 °F 53.6 °F 50% 29.87 in 10.0 mi ENE 12.7 mph 19.6 mph N/A   Partly Cloudy
5:35 PM 73.4 °F 53.6 °F 50% 29.87 in 10.0 mi East 12.7 mph 18.4 mph N/A   Clear
5:55 PM 73.4 °F 51.8 °F 47% 29.86 in 10.0 mi East 15.0 mph - N/A   Clear
6:15 PM 73.4 °F 51.8 °F 47% 29.86 in 10.0 mi East 12.7 mph - N/A   Clear
6:55 PM 71.6 °F 51.8 °F 50% 29.86 in 10.0 mi ENE 11.5 mph 17.3 mph N/A   Clear
7:15 PM 71.6 °F 51.8 °F 50% 29.86 in 10.0 mi East 11.5 mph 17.3 mph N/A   Clear
7:35 PM 71.6 °F 51.8 °F 50% 29.85 in 10.0 mi East 10.4 mph - N/A   Clear
7:55 PM 69.8 °F 51.8 °F 53% 29.85 in 10.0 mi East 8.1 mph - N/A   Clear
8:15 PM 69.8 °F 53.6 °F 56% 29.85 in 10.0 mi East 5.8 mph - N/A   Clear
8:55 PM 66.2 °F 53.6 °F 64% 29.84 in 10.0 mi East 9.2 mph - N/A   Clear
9:15 PM 66.2 °F 53.6 °F 64% 29.84 in 10.0 mi East 6.9 mph - N/A   Clear
10:15 PM 62.6 °F 53.6 °F 72% 29.86 in 10.0 mi NNE 3.5 mph - N/A   Mostly Cloudy
10:35 PM 60.8 °F 53.6 °F 77% 29.86 in 10.0 mi NE 3.5 mph - N/A   Scattered Clouds
10:55 PM 60.8 °F 53.6 °F 77% 29.85 in 10.0 mi North 4.6 mph - N/A   Scattered Clouds
11:15 PM 60.8 °F 53.6 °F 77% 29.86 in 10.0 mi North 4.6 mph - N/A   Mostly Cloudy
11:35 PM 60.8 °F 53.6 °F 77% 29.85 in 10.0 mi North 4.6 mph - N/A   Scattered Clouds
11:55 PM 59.0 °F 53.6 °F 82% 29.85 in 10.0 mi NNE 5.8 mph - N/A   Scattered Clouds